TimeCDT,TemperatureF,Dew PointF,Humidity,Sea Level PressureIn,VisibilityMPH,Wind Direction,Wind SpeedMPH,Gust SpeedMPH,PrecipitationIn,Events,Conditions,WindDirDegrees,DateUTC
12:33 AM,51.8,51.8,100,29.92,8.0,East,6.9,-,N/A,,Clear,90,2013-05-27 05:33:00
12:55 AM,50.7,50.7,100,29.92,7.0,ESE,4.6,-,N/A,,Clear,110,2013-05-27 05:55:00
1:29 AM,50.0,50.0,100,29.94,2.5,SE,3.5,-,N/A,,Clear,130,2013-05-27 06:29:00
1:30 AM,50.0,50.0,100,29.94,2.0,SE,3.5,-,N/A,,Clear,130,2013-05-27 06:30:00
1:31 AM,50.0,50.0,100,29.94,1.8,SE,4.6,-,N/A,,Clear,130,2013-05-27 06:31:00
1:34 AM,50.0,50.0,100,29.93,1.5,ESE,4.6,-,N/A,,Clear,120,2013-05-27 06:34:00
1:40 AM,51.8,51.8,100,29.93,1.2,SE,5.8,-,N/A,,Clear,130,2013-05-27 06:40:00
1:44 AM,51.8,51.8,100,29.93,1.2,SE,8.1,-,N/A,,Clear,130,2013-05-27 06:44:00
1:47 AM,51.8,51.8,100,29.93,1.5,SE,9.2,-,N/A,,Clear,130,2013-05-27 06:47:00
1:50 AM,53.6,53.6,100,29.92,2.0,SE,9.2,-,N/A,,Clear,130,2013-05-27 06:50:00
1:51 AM,53.6,53.6,100,29.92,3.0,SE,10.4,-,N/A,,Clear,130,2013-05-27 06:51:00
1:55 AM,53.1,53.1,100,29.91,5.0,SE,10.4,-,N/A,,Clear,130,2013-05-27 06:55:00
2:45 AM,53.6,53.6,100,29.92,8.0,SE,15.0,-,N/A,,Mostly Cloudy,140,2013-05-27 07:45:00
2:49 AM,53.6,53.6,100,29.92,7.0,SSE,13.8,-,N/A,,Mostly Cloudy,150,2013-05-27 07:49:00
2:55 AM,53.1,53.1,100,29.92,6.0,SSE,16.1,-,N/A,,Mostly Cloudy,150,2013-05-27 07:55:00
3:02 AM,53.6,53.6,100,29.92,5.0,SSE,15.0,-,N/A,,Overcast,150,2013-05-27 08:02:00
3:10 AM,53.6,53.6,100,29.91,5.0,SSE,15.0,-,N/A,,Overcast,150,2013-05-27 08:10:00
3:27 AM,53.6,53.6,100,29.92,4.0,SSE,13.8,-,N/A,,Overcast,150,2013-05-27 08:27:00
3:55 AM,52.9,52.9,100,29.90,3.0,SSE,17.3,-,N/A,,Overcast,150,2013-05-27 08:55:00
4:02 AM,53.6,53.6,100,29.90,2.5,SE,16.1,-,N/A,,Overcast,140,2013-05-27 09:02:00
4:06 AM,51.8,51.8,100,29.90,2.5,SSE,16.1,-,N/A,,Overcast,150,2013-05-27 09:06:00
4:18 AM,51.8,51.8,100,29.91,2.5,SSE,11.5,-,N/A,,Overcast,160,2013-05-27 09:18:00
4:22 AM,51.8,51.8,100,29.90,3.0,SSE,11.5,-,N/A,,Overcast,150,2013-05-27 09:22:00
4:55 AM,52.3,52.3,100,29.90,4.0,SSE,8.1,-,N/A,,Overcast,150,2013-05-27 09:55:00
5:15 AM,51.8,51.8,100,29.92,2.5,South,9.2,-,N/A,,Overcast,170,2013-05-27 10:15:00
5:17 AM,51.8,51.8,100,29.92,2.5,South,8.1,-,N/A,,Overcast,180,2013-05-27 10:17:00
5:29 AM,51.8,51.8,100,29.93,1.8,South,5.8,-,N/A,,Overcast,180,2013-05-27 10:29:00
5:43 AM,51.8,51.8,100,29.93,1.2,South,3.5,-,N/A,,Overcast,190,2013-05-27 10:43:00
5:49 AM,51.8,51.8,100,29.92,1.0,South,3.5,-,N/A,,Overcast,190,2013-05-27 10:49:00
5:51 AM,51.8,51.8,100,29.92,0.8,Calm,Calm,-,N/A,,Overcast,0,2013-05-27 10:51:00
5:55 AM,52.3,52.3,100,29.92,0.8,Calm,Calm,-,N/A,,Overcast,0,2013-05-27 10:55:00
5:56 AM,51.8,51.8,100,29.92,0.5,Calm,Calm,-,N/A,Fog,Fog,0,2013-05-27 10:56:00
6:09 AM,51.8,51.8,100,29.91,0.5,Calm,Calm,-,N/A,Fog,Fog,0,2013-05-27 11:09:00
6:11 AM,51.8,51.8,100,29.91,0.5,Calm,Calm,-,N/A,Fog,Fog,0,2013-05-27 11:11:00
6:18 AM,51.8,51.8,100,29.91,0.2,Calm,Calm,-,N/A,Fog,Fog,0,2013-05-27 11:18:00
6:26 AM,51.8,51.8,100,29.91,0.2,Calm,Calm,-,N/A,Fog,Fog,0,2013-05-27 11:26:00
6:28 AM,51.8,51.8,100,29.91,0.2,Calm,Calm,-,N/A,Fog,Fog,0,2013-05-27 11:28:00
6:34 AM,51.8,51.8,100,29.92,0.2,East,3.5,-,N/A,Fog,Fog,100,2013-05-27 11:34:00
6:45 AM,51.8,51.8,100,29.92,0.2,ESE,9.2,-,N/A,Fog,Fog,110,2013-05-27 11:45:00
6:47 AM,51.8,51.8,100,29.92,0.2,ESE,8.1,-,N/A,Fog,Fog,120,2013-05-27 11:47:00
6:48 AM,51.8,51.8,100,29.92,0.2,ESE,9.2,-,N/A,Fog,Fog,120,2013-05-27 11:48:00
6:51 AM,51.8,51.8,100,29.91,0.5,ESE,10.4,-,N/A,Fog,Fog,120,2013-05-27 11:51:00
6:55 AM,52.5,52.5,100,29.92,0.5,ESE,11.5,-,N/A,Fog,Fog,120,2013-05-27 11:55:00
7:00 AM,51.8,51.8,100,29.92,0.2,SE,11.5,-,N/A,Fog,Fog,130,2013-05-27 12:00:00
7:02 AM,51.8,51.8,100,29.92,0.2,SE,13.8,-,N/A,Fog,Fog,130,2013-05-27 12:02:00
7:04 AM,51.8,51.8,100,29.92,0.2,ESE,12.7,-,N/A,Fog,Fog,120,2013-05-27 12:04:00
7:24 AM,51.8,51.8,100,29.91,0.5,SE,11.5,-,N/A,Fog,Fog,140,2013-05-27 12:24:00
7:26 AM,51.8,51.8,100,29.91,0.5,SE,12.7,-,N/A,Fog,Fog,140,2013-05-27 12:26:00
7:27 AM,51.8,51.8,100,29.91,0.5,SE,12.7,-,N/A,Fog,Fog,140,2013-05-27 12:27:00
7:31 AM,51.8,51.8,100,29.91,0.5,SE,12.7,-,N/A,Fog,Fog,140,2013-05-27 12:31:00
7:34 AM,51.8,51.8,100,29.90,0.8,SE,12.7,-,N/A,,Mist,130,2013-05-27 12:34:00
7:45 AM,51.8,51.8,100,29.88,0.8,ESE,17.3,-,N/A,,Overcast,120,2013-05-27 12:45:00
7:46 AM,51.8,51.8,100,29.88,0.8,ESE,18.4,-,N/A,,Overcast,120,2013-05-27 12:46:00
7:47 AM,51.8,51.8,100,29.88,1.0,ESE,18.4,-,N/A,,Overcast,120,2013-05-27 12:47:00
7:55 AM,52.2,52.2,100,29.86,1.0,ESE,26.5,-,0.03,,Overcast,120,2013-05-27 12:55:00
7:56 AM,51.8,51.8,100,29.86,1.0,ESE,27.6,-,N/A,,Overcast,120,2013-05-27 12:56:00
8:01 AM,51.8,51.8,100,29.81,1.0,ESE,28.8,33.4,N/A,,Overcast,110,2013-05-27 13:01:00
8:07 AM,51.8,51.8,100,29.80,1.2,ESE,23.0,33.4,N/A,,Overcast,110,2013-05-27 13:07:00
8:09 AM,51.8,51.8,100,29.81,1.5,ESE,26.5,31.1,N/A,,Overcast,110,2013-05-27 13:09:00
8:15 AM,51.8,51.8,100,29.82,2.0,ESE,23.0,31.1,N/A,,Overcast,120,2013-05-27 13:15:00
8:20 AM,51.8,51.8,100,29.81,3.0,ESE,21.9,-,N/A,,Overcast,110,2013-05-27 13:20:00
8:55 AM,52.2,52.2,100,29.83,4.0,SE,18.4,-,0.02,,Overcast,130,2013-05-27 13:55:00
9:55 AM,52.2,52.2,100,29.83,9.0,SSE,13.8,-,N/A,,Overcast,150,2013-05-27 14:55:00
9:57 AM,51.8,51.8,100,29.83,9.0,SSE,15.0,-,N/A,,Overcast,150,2013-05-27 14:57:00
10:13 AM,53.6,51.8,94,29.84,10.0,SSE,15.0,-,N/A,,Overcast,160,2013-05-27 15:13:00
10:28 AM,53.6,53.6,100,29.83,10.0,SE,13.8,-,N/A,,Overcast,140,2013-05-27 15:28:00
10:54 AM,53.6,53.6,100,29.83,10.0,SSE,13.8,-,N/A,,Overcast,160,2013-05-27 15:54:00
10:55 AM,53.6,53.6,100,29.83,10.0,SSE,13.8,-,N/A,,Overcast,160,2013-05-27 15:55:00
11:10 AM,53.6,53.6,100,29.83,10.0,SE,12.7,-,N/A,,Overcast,140,2013-05-27 16:10:00
11:18 AM,53.6,53.6,100,29.83,10.0,SSE,13.8,-,N/A,,Overcast,150,2013-05-27 16:18:00
11:55 AM,55.8,55.6,99,29.83,10.0,SE,12.7,-,N/A,,Overcast,140,2013-05-27 16:55:00
12:55 PM,57.6,57.2,99,29.83,10.0,SSE,10.4,-,N/A,,Overcast,150,2013-05-27 17:55:00
1:55 PM,58.3,56.8,95,29.82,10.0,SE,8.1,-,N/A,,Overcast,130,2013-05-27 18:55:00
2:53 PM,59.0,57.2,94,29.79,10.0,ESE,9.2,-,N/A,,Overcast,120,2013-05-27 19:53:00
2:55 PM,59.7,56.7,90,29.79,10.0,ESE,8.1,-,N/A,,Overcast,120,2013-05-27 19:55:00
3:55 PM,62.1,56.8,83,29.77,10.0,SE,4.6,-,N/A,,Overcast,130,2013-05-27 20:55:00
4:55 PM,62.2,58.5,87,29.78,10.0,SSE,11.5,-,N/A,,Overcast,160,2013-05-27 21:55:00
5:42 PM,60.8,59.0,94,29.78,10.0,South,15.0,-,N/A,Thunderstorm,Thunderstorm,190,2013-05-27 22:42:00
5:47 PM,60.8,59.0,94,29.79,7.0,SSW,11.5,-,N/A,Thunderstorm,Thunderstorm,210,2013-05-27 22:47:00
5:50 PM,59.0,59.0,100,29.79,5.0,SW,11.5,-,N/A,Thunderstorm,Overcast,220,2013-05-27 22:50:00
5:55 PM,59.4,59.2,99,29.79,2.5,SSW,17.3,20.7,0.02,Thunderstorm,Overcast,210,2013-05-27 22:55:00
6:00 PM,59.0,59.0,100,29.78,1.8,SSW,13.8,-,N/A,Thunderstorm,Overcast,210,2013-05-27 23:00:00
6:04 PM,59.0,57.2,94,29.78,1.2,SSW,13.8,20.7,N/A,Thunderstorm,Overcast,210,2013-05-27 23:04:00
6:08 PM,57.2,57.2,100,29.78,1.2,SSW,15.0,-,N/A,Thunderstorm,Overcast,200,2013-05-27 23:08:00
6:09 PM,57.2,57.2,100,29.78,1.5,SSW,13.8,-,N/A,Thunderstorm,Overcast,200,2013-05-27 23:09:00
6:11 PM,57.2,57.2,100,29.78,2.0,SSW,12.7,-,N/A,,Overcast,200,2013-05-27 23:11:00
6:12 PM,57.2,57.2,100,29.78,2.5,SSW,12.7,-,N/A,,Overcast,200,2013-05-27 23:12:00
6:14 PM,57.2,57.2,100,29.78,3.0,SSW,12.7,-,N/A,,Overcast,200,2013-05-27 23:14:00
6:16 PM,57.2,57.2,100,29.78,4.0,SSW,12.7,-,N/A,,Overcast,200,2013-05-27 23:16:00
6:55 PM,57.9,57.9,100,29.75,9.0,SE,5.8,-,0.19,,Mostly Cloudy,140,2013-05-27 23:55:00
7:55 PM,57.6,57.6,100,29.68,10.0,NE,12.7,-,0.05,,Overcast,50,2013-05-28 00:55:00
8:05 PM,57.2,57.2,100,29.68,9.0,ENE,9.2,-,N/A,,Overcast,60,2013-05-28 01:05:00
8:55 PM,57.4,57.4,100,29.71,10.0,SE,11.5,-,N/A,,Overcast,140,2013-05-28 01:55:00
8:56 PM,57.2,57.2,100,29.72,10.0,SE,12.7,-,N/A,,Overcast,140,2013-05-28 01:56:00
9:04 PM,57.2,57.2,100,29.71,10.0,SE,13.8,-,N/A,,Overcast,140,2013-05-28 02:04:00
9:06 PM,57.2,57.2,100,29.71,10.0,SSE,11.5,-,N/A,,Overcast,150,2013-05-28 02:06:00
9:13 PM,57.2,57.2,100,29.71,10.0,SSE,10.4,-,N/A,,Overcast,150,2013-05-28 02:13:00
9:24 PM,57.2,57.2,100,29.70,10.0,SE,9.2,-,N/A,,Overcast,140,2013-05-28 02:24:00
9:42 PM,57.2,57.2,100,29.70,10.0,SSE,10.4,-,N/A,,Overcast,160,2013-05-28 02:42:00
9:55 PM,57.0,57.0,100,29.70,10.0,South,10.4,-,N/A,,Overcast,170,2013-05-28 02:55:00
10:14 PM,57.2,57.2,100,29.71,10.0,South,9.2,-,N/A,,Overcast,170,2013-05-28 03:14:00
10:25 PM,55.4,55.4,100,29.71,10.0,South,6.9,-,N/A,,Mostly Cloudy,170,2013-05-28 03:25:00
10:29 PM,55.4,55.4,100,29.71,10.0,SSE,6.9,-,N/A,,Scattered Clouds,160,2013-05-28 03:29:00
10:51 PM,55.4,55.4,100,29.72,10.0,SSW,5.8,-,N/A,,Mostly Cloudy,200,2013-05-28 03:51:00
10:55 PM,55.8,55.6,99,29.71,10.0,South,4.6,-,N/A,,Mostly Cloudy,180,2013-05-28 03:55:00
11:38 PM,55.4,55.4,100,29.70,10.0,SSE,5.8,-,N/A,,Overcast,160,2013-05-28 04:38:00
11:53 PM,55.4,55.4,100,29.69,10.0,SSE,5.8,-,N/A,,Overcast,150,2013-05-28 04:53:00
11:55 PM,55.8,55.8,100,29.69,10.0,SSE,5.8,-,N/A,,Mostly Cloudy,150,2013-05-28 04:55:00